DL9BGG-13 Weather Reports


time (UTC)temp
F
wind
direction
speed
knots
gust
knots
rain 1hr
in
rain 24hr
in
rain mn
in
humidity
%
barometer
mb
20260504020637 52 0 0.9 0.0 0.00 0.61 0.00 92 1056.5
20260504020527 52 0 0.0 0.0 0.00 0.61 0.00 92 1056.5
20260504020419 52 315 0.0 0.0 0.00 0.61 0.00 92 1056.5
20260504020306 52 315 0.0 0.0 0.00 0.61 0.00 92 1056.6
20260504020153 52 0 0.0 0.0 0.00 0.61 0.00 92 1056.5
20260504020040 52 337 0.0 0.0 0.00 0.61 0.00 92 1056.5
20260504015927 52 337 0.0 0.0 0.00 0.61 0.00 92 1056.5
20260504015822 52 315 0.0 0.0 0.00 0.61 0.00 92 1056.5
20260504015718 52 315 2.6 0.0 0.00 0.61 0.00 92 1056.5
20260504015612 52 292 0.9 0.0 0.00 0.61 0.00 92 1056.4
20260504015450 52 315 0.0 0.0 0.00 0.61 0.00 92 1056.4
20260504015320 52 315 0.0 0.0 0.00 0.61 0.00 92 1056.4
20260504015151 52 315 0.0 0.0 0.00 0.61 0.00 92 1056.4
20260504015045 52 315 0.0 0.0 0.00 0.61 0.00 92 1056.4
20260504014935 52 315 0.0 0.0 0.00 0.61 0.00 92 1056.4
20260504014827 52 315 0.0 0.0 0.00 0.61 0.00 92 1056.4
20260504014658 52 315 0.0 0.0 0.00 0.61 0.00 92 1056.4
20260504014553 52 315 0.0 0.0 0.00 0.61 0.00 92 1056.4
20260504014440 52 0 0.0 0.0 0.00 0.61 0.00 92 1056.4
20260504014319 52 315 0.0 0.0 0.00 0.61 0.00 92 1056.4
20260504014205 52 315 0.0 0.0 0.00 0.61 0.00 92 1056.4
20260504014044 52 315 0.0 0.0 0.00 0.61 0.00 92 1056.4
20260504013931 52 315 0.0 0.0 0.00 0.61 0.00 92 1056.4
20260504013818 52 315 4.3 0.0 0.00 0.61 0.00 92 1056.4
20260504013711 52 292 1.7 0.0 0.00 0.61 0.00 92 1056.4
20260504013551 52 292 0.0 0.0 0.00 0.61 0.00 92 1056.5
20260504013447 52 315 0.0 0.0 0.00 0.61 0.00 92 1056.4
20260504013323 52 315 0.0 0.0 0.00 0.61 0.00 92 1056.4
20260504013209 52 315 0.0 0.0 0.00 0.61 0.00 92 1056.4
20260504013057 52 315 0.0 0.0 0.00 0.61 0.00 92 1056.4
20260504012941 52 292 0.0 0.0 0.00 0.61 0.00 92 1056.5
20260504012828 52 315 0.0 0.0 0.00 0.61 0.00 92 1056.5
20260504012714 52 315 0.0 0.0 0.00 0.61 0.00 92 1056.4
20260504012553 52 337 0.0 0.0 0.00 0.61 0.00 92 1056.5
20260504012438 52 337 0.0 0.0 0.00 0.61 0.00 92 1056.4
20260504012319 52 337 0.0 0.0 0.00 0.61 0.00 92 1056.5
20260504012205 52 315 0.0 0.0 0.00 0.61 0.00 92 1056.5
20260504012053 52 315 0.0 0.0 0.00 0.61 0.00 92 1056.4
20260504011947 52 315 0.0 0.0 0.00 0.61 0.00 92 1056.4
20260504011834 52 315 0.0 0.0 0.00 0.61 0.00 92 1056.4
20260504011705 52 0 0.0 0.0 0.00 0.61 0.00 92 1056.3
20260504011544 52 0 0.0 0.0 0.00 0.61 0.00 92 1056.3
20260504011421 52 337 0.0 0.0 0.00 0.61 0.00 92 1056.3
20260504011300 52 337 0.9 0.0 0.00 0.61 0.00 92 1056.3
20260504011138 52 337 2.6 0.0 0.00 0.61 0.00 92 1056.4
20260504011032 52 292 0.0 0.0 0.00 0.61 0.00 92 1056.3
20260504010926 52 292 0.0 0.0 0.00 0.61 0.00 92 1056.3
20260504010804 52 292 2.6 0.0 0.00 0.61 0.00 92 1056.4
20260504010651 52 292 0.0 0.0 0.00 0.61 0.00 92 1056.3
20260504010537 52 315 0.0 0.0 0.00 0.61 0.00 92 1056.3
20260504010432 52 292 0.9 0.0 0.00 0.61 0.00 92 1056.3
20260504010327 52 270 0.0 0.0 0.00 0.61 0.00 92 1056.2
20260504005906 52 292 0.0 0.0 0.00 0.61 0.00 92 1056.2
20260504005737 52 292 0.0 0.0 0.00 0.61 0.00 92 1056.2
20260504005624 52 315 0.0 0.0 0.00 0.61 0.00 92 1056.2
20260504005511 52 270 5.2 0.0 0.00 0.61 0.00 92 1056.1
20260504005407 53 337 0.0 0.0 0.00 0.61 0.00 92 1056.2
20260504005243 53 292 0.0 0.0 0.00 0.61 0.00 92 1056.1
20260504005130 53 315 2.6 0.0 0.00 0.61 0.00 92 1056.1
20260504005009 53 315 1.7 0.0 0.00 0.61 0.00 92 1056.0
20260504004904 53 315 0.0 0.0 0.00 0.61 0.00 92 1056.0
20260504004742 53 315 1.7 0.0 0.00 0.61 0.00 92 1056.1
20260504004628 53 315 0.0 0.0 0.00 0.61 0.00 92 1056.2
20260504004515 53 315 0.9 0.0 0.00 0.61 0.00 92 1056.2
20260504004403 53 337 3.5 0.0 0.00 0.61 0.00 92 1056.2
20260504004249 53 315 0.0 0.0 0.00 0.61 0.00 92 1056.1
20260504004128 53 315 0.0 0.0 0.00 0.61 0.00 92 1056.1
20260504004015 53 315 1.7 0.0 0.00 0.61 0.00 92 1056.1
20260504003900 53 292 0.9 0.0 0.00 0.61 0.00 92 1056.1
20260504003742 53 315 0.0 0.0 0.00 0.61 0.00 92 1056.1
20260504003633 53 315 0.0 0.0 0.00 0.61 0.00 92 1056.0
20260504003505 53 315 0.9 0.0 0.00 0.61 0.00 92 1056.0
20260504003352 53 315 5.2 0.0 0.00 0.61 0.00 92 1056.0
20260504003238 53 315 0.0 0.0 0.00 0.61 0.00 92 1056.0
20260504003125 53 337 6.1 0.0 0.00 0.61 0.00 92 1056.0
20260504003004 53 315 0.0 0.0 0.00 0.61 0.00 92 1056.0
20260504002843 53 337 1.7 0.0 0.00 0.61 0.00 92 1056.0
20260504002730 53 315 1.7 0.0 0.00 0.61 0.00 92 1056.0
20260504002625 53 315 1.7 0.0 0.00 0.61 0.00 92 1056.0
20260504002514 53 315 7.8 0.0 0.00 0.61 0.00 92 1056.0
20260504002407 53 292 7.0 0.0 0.00 0.61 0.00 92 1056.0
20260504002255 53 315 2.6 0.0 0.00 0.61 0.00 92 1056.0
20260504002151 53 270 0.0 0.0 0.00 0.61 0.00 92 1056.0
20260504002045 53 292 1.7 0.0 0.00 0.61 0.00 92 1055.9
20260504001939 53 292 0.0 0.0 0.00 0.61 0.00 92 1055.9
20260504001834 53 292 6.1 0.0 0.00 0.61 0.00 92 1056.0
20260504001721 53 315 7.0 0.0 0.00 0.61 0.00 92 1056.0
20260504001606 53 315 0.0 0.0 0.00 0.61 0.00 92 1056.0
20260504001446 53 315 7.0 0.0 0.00 0.61 0.00 92 1055.9
20260504001333 53 292 4.3 0.0 0.00 0.61 0.00 92 1055.9
20260504001219 53 292 3.5 0.0 0.00 0.61 0.00 92 1055.9
20260504001108 53 292 3.5 0.0 0.00 0.61 0.00 93 1055.9
20260504001001 53 315 1.7 0.0 0.00 0.61 0.00 92 1056.0
20260504000840 53 292 0.0 0.0 0.00 0.61 0.00 92 1055.8
20260504000721 54 292 5.2 0.0 0.00 0.61 0.00 92 1055.8
20260504000613 54 315 9.6 0.0 0.00 0.61 0.00 93 1055.8
20260504000504 54 315 1.7 0.0 0.00 0.61 0.00 92 1055.8
20260504000357 54 315 3.5 0.0 0.00 0.61 0.00 92 1055.8
20260504000253 54 270 3.5 0.0 0.00 0.61 0.00 92 1055.7
20260504000146 54 292 4.3 0.0 0.00 0.61 0.00 92 1055.8
20260504000024 54 315 0.0 0.0 0.00 0.61 0.00 92 1055.7
20260503235904 54 270 0.0 0.0 0.00 0.61 0.00 92 1055.8
20260503235753 54 292 0.0 0.0 0.00 0.61 0.00 92 1055.7
20260503235646 54 292 0.0 0.0 0.00 0.61 0.00 92 1055.7
20260503235540 54 315 6.1 0.0 0.00 0.61 0.00 92 1055.7
20260503235421 54 315 1.7 0.0 0.00 0.61 0.00 92 1055.7
20260503235314 54 315 0.0 0.0 0.00 0.61 0.00 92 1055.7
20260503235201 54 337 5.2 0.0 0.00 0.61 0.00 92 1055.7
20260503235048 54 315 0.0 0.0 0.00 0.61 0.00 92 1055.7
20260503234934 54 292 0.0 0.0 0.00 0.61 0.00 92 1055.7
20260503234823 54 315 5.2 0.0 0.00 0.61 0.00 92 1055.7
20260503234717 54 315 5.2 0.0 0.00 0.61 0.00 92 1055.7
20260503234603 54 292 5.2 0.0 0.00 0.61 0.00 92 1055.7
20260503234451 54 337 0.0 0.0 0.00 0.61 0.00 92 1055.8
20260503234338 54 292 5.2 0.0 0.00 0.61 0.00 92 1055.7
20260503234225 54 270 1.7 0.0 0.00 0.61 0.00 92 1055.8
20260503234118 54 315 0.0 0.0 0.00 0.61 0.00 92 1055.8
20260503234007 54 270 0.9 0.0 0.00 0.61 0.00 92 1055.7
20260503233845 54 292 5.2 0.0 0.00 0.61 0.00 92 1055.8
20260503233725 54 315 3.5 0.0 0.00 0.61 0.00 92 1055.8
20260503233619 54 225 0.0 0.0 0.00 0.61 0.00 92 1055.8
20260503233506 54 292 12.2 0.0 0.00 0.61 0.00 92 1055.8
20260503233401 55 292 7.0 0.0 0.00 0.61 0.00 92 1055.8
20260503233239 55 270 4.3 0.0 0.00 0.61 0.00 92 1055.8
20260503233118 55 270 5.2 0.0 0.00 0.61 0.00 92 1055.8
20260503233004 55 292 7.8 0.0 0.00 0.61 0.00 92 1055.7
20260503232845 55 292 0.9 0.0 0.00 0.61 0.00 92 1055.7
20260503232740 55 292 0.0 0.0 0.00 0.61 0.00 92 1055.7
20260503232636 55 315 0.0 0.0 0.00 0.61 0.00 92 1055.7
20260503232528 55 315 0.0 0.0 0.00 0.61 0.00 92 1055.7
20260503232416 55 292 0.0 0.0 0.00 0.61 0.00 92 1055.7
20260503232311 55 292 4.3 0.0 0.00 0.61 0.00 92 1055.7
20260503232206 55 315 3.5 0.0 0.00 0.61 0.00 92 1055.7
20260503232053 55 315 0.0 0.0 0.00 0.61 0.00 92 1055.6
20260503231947 55 292 0.0 0.0 0.00 0.61 0.00 92 1055.7
20260503231826 55 292 0.0 0.0 0.00 0.61 0.00 91 1055.7
20260503231713 55 315 10.4 0.0 0.00 0.61 0.00 91 1055.6
20260503231551 55 315 6.1 0.0 0.00 0.61 0.00 91 1055.6
20260503231430 55 315 6.1 0.0 0.00 0.61 0.00 91 1055.6
20260503231310 55 315 0.9 0.0 0.00 0.61 0.00 91 1055.5
20260503231205 55 292 9.6 0.0 0.00 0.61 0.00 91 1055.5
20260503231051 55 292 3.5 0.0 0.00 0.61 0.00 91 1055.5
20260503230929 55 315 4.3 0.0 0.00 0.61 0.00 91 1055.5
20260503230811 55 315 3.5 0.0 0.00 0.61 0.00 91 1055.5
20260503230704 55 315 3.5 0.0 0.00 0.61 0.00 91 1055.5
20260503230550 55 292 6.1 0.0 0.00 0.61 0.00 92 1055.5
20260503230431 55 292 6.1 0.0 0.00 0.61 0.00 92 1055.5
20260503230316 55 292 3.5 0.0 0.00 0.61 0.00 92 1055.4
20260503230155 55 315 6.1 0.0 0.00 0.61 0.00 92 1055.4
20260503230036 55 270 5.2 0.0 0.00 0.61 0.00 92 1055.5
20260503225931 55 292 0.9 0.0 0.00 0.61 0.00 92 1055.4
20260503225824 55 270 6.1 0.0 0.00 0.61 0.00 92 1055.4
20260503225710 55 292 4.3 0.0 0.00 0.61 0.00 92 1055.5
20260503225557 55 292 9.6 0.0 0.00 0.61 0.00 92 1055.5
20260503225447 55 270 4.3 0.0 0.00 0.61 0.00 92 1055.5
20260503225341 55 270 1.7 0.0 0.00 0.61 0.00 92 1055.6
20260503225236 55 292 5.2 0.0 0.00 0.61 0.00 92 1055.5
20260503225130 55 292 5.2 0.0 0.00 0.61 0.00 92 1055.5
20260503225025 55 292 7.8 0.0 0.00 0.61 0.00 93 1055.6
20260503224919 55 270 0.0 0.0 0.00 0.61 0.00 93 1055.5
20260503224758 55 247 5.2 0.0 0.00 0.61 0.00 92 1055.5
20260503224636 55 315 9.6 0.0 0.00 0.61 0.00 92 1055.5
20260503224509 55 270 4.3 0.0 0.00 0.61 0.00 93 1055.5
20260503224404 55 270 6.1 0.0 0.00 0.61 0.00 93 1055.5
20260503224257 55 247 13.0 0.0 0.00 0.61 0.00 93 1055.5
20260503224145 55 315 7.8 0.0 0.00 0.61 0.00 93 1055.5
20260503224034 55 292 7.0 0.0 0.00 0.61 0.00 93 1055.5
20260503223918 55 292 8.7 0.0 0.00 0.61 0.00 93 1055.4
20260503223813 55 292 5.2 0.0 0.00 0.61 0.00 93 1055.4
20260503223659 55 315 10.4 0.0 0.00 0.61 0.00 93 1055.4
20260503223547 55 22 2.6 0.0 0.00 0.61 0.00 93 1055.4
20260503223434 55 270 5.2 0.0 0.00 0.61 0.00 93 1055.4
20260503223321 55 337 3.5 0.0 0.00 0.61 0.00 93 1055.4
20260503223216 55 292 5.2 0.0 0.00 0.61 0.00 93 1055.3
20260503223054 55 337 6.1 0.0 0.00 0.61 0.00 93 1055.3
20260503222942 55 337 4.3 0.0 0.00 0.61 0.00 93 1055.4
20260503222828 55 270 6.1 0.0 0.00 0.61 0.00 93 1055.4
20260503222715 55 315 7.0 0.0 0.00 0.61 0.00 93 1055.3
20260503222603 55 315 0.9 0.0 0.00 0.61 0.00 93 1055.2
20260503222449 55 315 3.5 0.0 0.00 0.61 0.00 93 1055.3
20260503222338 55 270 8.7 0.0 0.00 0.61 0.00 93 1055.3
20260503222231 55 292 5.2 0.0 0.00 0.61 0.00 93 1055.3
20260503222125 55 292 12.2 0.0 0.00 0.61 0.00 93 1055.3
20260503222007 55 270 1.7 0.0 0.00 0.61 0.00 93 1055.3
20260503221859 55 292 3.5 0.0 0.00 0.61 0.00 93 1055.3
20260503221737 55 315 13.0 0.0 0.00 0.61 0.00 93 1055.3
20260503221616 56 292 5.2 0.0 0.00 0.61 0.00 93 1055.3
20260503221455 56 292 5.2 0.0 0.00 0.61 0.00 93 1055.3
20260503221318 56 292 9.6 0.0 0.00 0.61 0.00 93 1055.3
20260503221149 56 270 5.2 0.0 0.00 0.61 0.00 93 1055.3
20260503221037 56 315 0.0 0.0 0.00 0.61 0.00 93 1055.2
20260503220930 56 225 7.0 0.0 0.00 0.61 0.00 93 1055.2
20260503220802 56 292 5.2 0.0 0.00 0.61 0.00 93 1055.3
20260503220659 56 315 7.0 0.0 0.00 0.61 0.00 93 1055.2
20260503220553 56 292 5.2 0.0 0.00 0.61 0.00 93 1055.3
20260503220438 56 270 5.2 0.0 0.00 0.61 0.00 93 1055.4
20260503220324 56 270 0.9 0.0 0.00 0.61 0.00 93 1055.3
20260503220212 56 292 6.1 0.0 0.00 0.61 0.00 93 1055.3
20260503220058 56 292 3.5 0.0 0.00 0.61 0.00 93 1055.3
20260503215946 56 315 6.1 0.0 0.00 0.61 0.00 93 1055.3
20260503215840 56 270 6.1 0.0 0.00 0.61 0.00 93 1055.2
20260503215728 56 292 3.5 0.0 0.00 0.61 0.00 93 1055.3
20260503215606 56 292 0.0 0.0 0.00 0.61 0.00 93 1055.2
20260503215453 56 315 6.1 0.0 0.00 0.61 0.00 93 1055.2
20260503215348 56 315 0.0 0.0 0.00 0.61 0.00 93 1055.2
20260503215227 56 270 5.2 0.0 0.00 0.61 0.00 93 1055.2
20260503215115 56 225 4.3 0.0 0.00 0.61 0.00 93 1055.2
20260503215011 56 292 4.3 0.0 0.00 0.61 0.00 93 1055.2
20260503214905 56 315 7.8 0.0 0.00 0.61 0.00 93 1055.1
20260503214759 56 247 0.9 0.0 0.00 0.61 0.00 93 1055.1
20260503214646 56 292 5.2 0.0 0.00 0.61 0.00 93 1055.1
20260503214541 56 292 3.5 0.0 0.00 0.61 0.00 93 1055.0
20260503214435 56 315 6.1 0.0 0.00 0.61 0.00 93 1055.1
20260503214258 56 292 3.5 0.0 0.00 0.61 0.00 93 1055.0
20260503214154 56 315 8.7 0.0 0.00 0.61 0.00 93 1055.1
20260503214049 56 315 7.0 0.0 0.00 0.61 0.00 93 1055.1
20260503213943 56 292 9.6 0.0 0.00 0.61 0.00 93 1055.1
20260503213822 56 315 7.0 0.0 0.00 0.61 0.00 93 1055.1
20260503213701 56 270 3.5 0.0 0.00 0.61 0.00 93 1055.1
20260503213556 56 292 8.7 0.0 0.00 0.61 0.00 93 1055.1
20260503213450 56 315 6.1 0.0 0.00 0.61 0.00 93 1055.1
20260503213322 56 292 0.0 0.0 0.00 0.61 0.00 93 1055.1
20260503213208 56 292 7.0 0.0 0.00 0.61 0.00 93 1055.1
20260503213103 56 292 3.5 0.0 0.00 0.61 0.00 93 1055.1
20260503212950 56 337 5.2 0.0 0.00 0.61 0.00 93 1055.1
20260503212831 56 270 0.0 0.0 0.00 0.61 0.00 93 1055.0
20260503212724 56 315 0.0 0.0 0.00 0.61 0.00 93 1055.0
20260503212611 56 292 11.3 0.0 0.00 0.61 0.00 93 1055.0
20260503212506 57 270 6.1 0.0 0.00 0.61 0.00 93 1055.1
20260503212352 57 315 5.2 0.0 0.00 0.61 0.00 93 1055.0
20260503212233 57 315 5.2 0.0 0.00 0.61 0.00 93 1055.0
20260503212126 57 292 5.2 0.0 0.00 0.61 0.00 93 1055.1
20260503212014 57 292 0.0 0.0 0.00 0.61 0.00 93 1055.0
20260503211908 57 247 6.1 0.0 0.00 0.61 0.00 93 1055.1
20260503211803 57 315 0.0 0.0 0.00 0.61 0.00 93 1055.1
20260503211650 57 292 7.0 0.0 0.00 0.61 0.00 93 1055.2
20260503211539 57 270 3.5 0.0 0.00 0.61 0.00 93 1055.2
20260503211433 57 292 0.0 0.0 0.00 0.61 0.00 93 1055.1
20260503211319 57 292 0.0 0.0 0.00 0.61 0.00 93 1055.1
20260503211159 57 270 0.0 0.0 0.00 0.61 0.00 93 1055.2
20260503211044 57 270 6.1 0.0 0.00 0.61 0.00 93 1055.1
20260503210925 57 315 0.0 0.0 0.00 0.61 0.00 93 1055.2
20260503210818 57 270 8.7 0.0 0.00 0.61 0.00 93 1055.1
20260503210706 57 270 5.2 0.0 0.00 0.61 0.00 93 1055.1
20260503210602 57 292 0.0 0.0 0.00 0.61 0.00 93 1055.1
20260503210457 57 270 0.0 0.0 0.00 0.61 0.00 93 1055.2
20260503210344 57 315 7.0 0.0 0.00 0.61 0.00 93 1055.1
20260503210237 57 292 0.0 0.0 0.00 0.61 0.00 93 1055.2
20260503210132 57 292 0.0 0.0 0.00 0.61 0.00 93 1055.2
20260503210019 57 292 0.0 0.0 0.00 0.61 0.00 93 1055.1
20260503205906 57 270 0.0 0.0 0.00 0.61 0.00 93 1055.2
20260503205801 57 292 0.0 0.0 0.00 0.61 0.00 93 1055.2
20260503205649 57 315 4.3 0.0 0.00 0.61 0.00 93 1055.2
20260503205534 57 337 0.0 0.0 0.00 0.61 0.00 93 1055.2
20260503205421 57 270 0.0 0.0 0.00 0.61 0.00 93 1055.2
20260503205300 57 292 0.0 0.0 0.00 0.61 0.00 93 1055.2
20260503205147 57 270 6.1 0.0 0.00 0.61 0.00 93 1055.1
20260503205036 57 292 0.0 0.0 0.00 0.61 0.00 93 1055.1
20260503204930 57 270 0.0 0.0 0.00 0.61 0.00 93 1055.1
20260503204817 57 270 0.0 0.0 0.00 0.61 0.00 93 1055.1
20260503204711 57 315 0.0 0.0 0.00 0.61 0.00 93 1055.0
20260503204605 57 292 0.0 0.0 0.00 0.61 0.00 93 1055.1
20260503204436 57 292 0.0 0.0 0.00 0.61 0.00 93 1055.1
20260503204323 57 270 0.0 0.0 0.00 0.61 0.00 93 1055.1
20260503204210 57 270 0.0 0.0 0.00 0.61 0.00 93 1055.1
20260503204049 57 292 0.0 0.0 0.00 0.61 0.00 93 1055.2
20260503203944 57 292 0.0 0.0 0.00 0.61 0.00 93 1055.1
20260503203831 57 292 0.0 0.0 0.00 0.61 0.00 93 1055.0
20260503203726 57 270 0.0 0.0 0.00 0.61 0.00 93 1055.1
20260503203612 57 270 0.0 0.0 0.00 0.61 0.00 93 1055.1
20260503203459 57 292 0.0 0.0 0.00 0.61 0.00 93 1055.0
20260503203338 57 270 0.0 0.0 0.00 0.61 0.00 93 1055.0
20260503203225 57 247 0.0 0.0 0.00 0.61 0.00 93 1055.1
20260503203112 57 270 0.0 0.0 0.00 0.61 0.00 93 1055.0
20260503202950 57 337 0.0 0.0 0.00 0.61 0.00 93 1055.0
20260503202829 57 315 0.0 0.0 0.00 0.61 0.00 93 1055.1
20260503202719 57 270 0.0 0.0 0.00 0.61 0.00 93 1055.1
20260503202612 57 292 0.0 0.0 0.00 0.61 0.00 93 1055.1
20260503202506 57 270 0.0 0.0 0.00 0.61 0.00 93 1055.0
20260503202353 57 292 3.5 0.0 0.00 0.61 0.00 93 1055.0
20260503202249 57 270 0.0 0.0 0.00 0.61 0.00 93 1055.0
20260503202143 57 270 0.0 0.0 0.00 0.61 0.00 93 1055.0
20260503202030 57 270 0.0 0.0 0.00 0.61 0.00 93 1055.0
20260503201910 57 270 0.0 0.0 0.00 0.61 0.00 93 1055.0
20260503201806 57 292 0.0 0.0 0.00 0.61 0.00 93 1055.0
20260503201659 57 292 0.0 0.0 0.00 0.61 0.00 93 1055.0
20260503201545 56 270 0.0 0.0 0.00 0.61 0.00 93 1055.0
20260503201433 57 270 0.0 0.0 0.00 0.61 0.00 93 1055.0
20260503201312 56 270 0.0 0.0 0.00 0.61 0.00 93 1055.0
20260503201158 56 292 0.0 0.0 0.00 0.61 0.00 93 1055.0
20260503201047 56 270 0.0 0.0 0.00 0.61 0.00 93 1055.0
20260503200940 56 270 0.0 0.0 0.00 0.61 0.00 93 1055.0
20260503200837 56 292 0.0 0.0 0.00 0.61 0.00 93 1055.0
20260503200722 56 292 0.0 0.0 0.00 0.61 0.00 93 1055.0
20260503200608 56 292 0.0 0.0 0.00 0.61 0.00 93 1055.0
20260503200456 56 270 0.0 0.0 0.00 0.61 0.00 93 1055.0
20260503200350 56 270 0.0 0.0 0.00 0.61 0.00 93 1055.1
20260503200240 56 270 0.0 0.0 0.00 0.61 0.00 93 1055.1
20260503200133 56 292 4.3 0.0 0.00 0.61 0.00 93 1055.0
20260503200020 56 270 0.0 0.0 0.00 0.61 0.00 93 1055.1
20260503195859 56 292 0.0 0.0 0.00 0.61 0.00 93 1055.0
20260503195753 56 270 0.0 0.0 0.00 0.61 0.00 93 1054.9
20260503195640 56 292 0.0 0.0 0.00 0.61 0.00 93 1055.0
20260503195535 56 270 0.0 0.0 0.00 0.61 0.00 93 1054.9
20260503195414 56 270 0.0 0.0 0.00 0.61 0.00 93 1054.9
20260503195300 56 270 0.0 0.0 0.00 0.61 0.00 93 1054.9
20260503195131 56 247 0.0 0.0 0.00 0.61 0.00 93 1054.8
20260503195010 56 270 0.0 0.0 0.00 0.61 0.00 93 1054.9
20260503194850 56 292 0.0 0.0 0.00 0.61 0.00 93 1054.9
20260503194736 56 270 3.5 0.0 0.00 0.61 0.00 93 1054.8
20260503194631 56 315 0.0 0.0 0.00 0.61 0.00 93 1054.8
20260503194527 56 315 0.0 0.0 0.00 0.61 0.00 93 1054.8
20260503194421 56 292 0.0 0.0 0.00 0.61 0.00 93 1054.7
20260503194317 56 292 0.0 0.0 0.00 0.61 0.00 93 1054.7
20260503194210 56 292 0.0 0.0 0.00 0.61 0.00 93 1054.8
20260503194050 56 315 0.0 0.0 0.00 0.61 0.00 93 1054.8
20260503193937 56 292 0.0 0.0 0.00 0.61 0.00 93 1054.8
20260503193834 56 270 0.0 0.0 0.00 0.61 0.00 93 1054.8
20260503193726 56 292 0.0 0.0 0.00 0.61 0.00 93 1054.8
20260503193606 56 292 0.0 0.0 0.00 0.61 0.00 93 1054.8
20260503193455 56 292 0.0 0.0 0.00 0.61 0.00 93 1054.6
20260503193346 56 292 0.0 0.0 0.00 0.61 0.00 93 1054.7
20260503193226 56 292 0.0 0.0 0.00 0.61 0.00 93 1054.6
20260503193114 57 315 0.0 0.0 0.02 0.61 0.00 93 1054.6
20260503192959 57 315 0.0 0.0 0.02 0.61 0.00 93 1054.6
20260503192847 57 315 0.0 0.0 0.02 0.61 0.00 93 1054.5
20260503192717 57 292 0.0 0.0 0.02 0.61 0.00 93 1054.6
20260503192606 57 292 1.7 0.0 0.02 0.61 0.00 93 1054.5
20260503192459 57 292 0.0 0.0 0.02 0.61 0.00 92 1054.6
20260503192346 57 292 4.3 0.0 0.02 0.61 0.00 93 1054.4
20260503192233 57 292 0.0 0.0 0.02 0.61 0.00 92 1054.6
20260503192113 57 292 0.0 0.0 0.02 0.61 0.00 92 1054.5
20260503191958 57 292 4.3 0.0 0.02 0.61 0.00 92 1054.5
20260503191839 57 292 0.0 0.0 0.02 0.61 0.00 92 1054.5
20260503191724 57 337 0.0 0.0 0.02 0.61 0.00 92 1054.4
20260503191610 57 270 0.0 0.0 0.02 0.61 0.00 92 1054.4
20260503191441 57 270 0.0 0.0 0.02 0.61 0.00 92 1054.4
20260503191312 57 292 0.0 0.0 0.02 0.61 0.00 92 1054.4
20260503191151 57 270 0.0 0.0 0.02 0.61 0.00 92 1054.4
20260503191047 57 315 0.0 0.0 0.02 0.61 0.00 92 1054.4
20260503190942 57 292 3.5 0.0 0.02 0.61 0.00 92 1054.4
20260503190836 57 292 0.0 0.0 0.02 0.61 0.00 92 1054.4
20260503190716 57 270 0.0 0.0 0.02 0.61 0.00 92 1054.4
20260503190602 57 270 0.0 0.0 0.02 0.61 0.00 92 1054.3
20260503190448 57 292 0.0 0.0 0.02 0.61 0.00 93 1054.3
20260503190319 57 270 0.0 0.0 0.02 0.61 0.00 93 1054.3
20260503190200 57 270 0.0 0.0 0.02 0.61 0.00 93 1054.3
20260503190045 58 270 0.0 0.0 0.02 0.61 0.00 93 1054.3
20260503185924 58 315 0.0 0.0 0.02 0.61 0.00 93 1054.3
20260503185818 58 270 4.3 0.0 0.02 0.61 0.00 93 1054.3
20260503185649 58 292 0.0 0.0 0.02 0.61 0.00 92 1054.3
20260503185536 58 292 0.0 0.0 0.02 0.61 0.00 92 1054.2
20260503185424 58 292 0.0 0.0 0.02 0.61 0.00 92 1054.2
20260503185309 58 315 0.0 0.0 0.02 0.61 0.00 92 1054.2
20260503185149 58 270 3.5 0.0 0.02 0.61 0.00 92 1054.1
20260503185027 58 292 0.0 0.0 0.02 0.61 0.00 92 1054.2
20260503184859 58 270 0.0 0.0 0.02 0.61 0.00 92 1054.2
20260503184746 58 270 2.6 0.0 0.02 0.61 0.00 93 1054.2
20260503184632 58 315 3.5 0.0 0.02 0.61 0.00 93 1054.2
20260503184521 58 270 0.0 0.0 0.02 0.61 0.00 92 1054.2
20260503184413 58 292 5.2 0.0 0.02 0.61 0.00 93 1054.2
20260503184244 58 292 0.0 0.0 0.02 0.61 0.00 93 1054.3
20260503184131 58 292 0.0 0.0 0.02 0.61 0.00 93 1054.2
20260503184010 58 270 0.0 0.0 0.02 0.61 0.00 93 1054.3
20260503183857 58 337 0.0 0.0 0.02 0.61 0.00 93 1054.3
20260503183743 58 292 6.1 0.0 0.02 0.61 0.00 93 1054.2
20260503183623 58 247 0.0 0.0 0.02 0.61 0.00 93 1054.3
20260503183519 58 270 0.0 0.0 0.02 0.61 0.00 93 1054.3
20260503183412 58 292 0.0 0.0 0.00 0.59 0.00 93 1054.3
20260503183252 58 270 0.0 0.0 0.00 0.59 0.00 93 1054.2
20260503183146 58 292 0.0 0.0 0.00 0.59 0.00 92 1054.3
20260503183025 58 292 0.0 0.0 0.00 0.59 0.00 93 1054.2
20260503182903 58 292 0.0 0.0 0.00 0.59 0.00 92 1054.1
20260503182750 58 315 0.0 0.0 0.00 0.59 0.00 93 1054.1
20260503182629 59 270 0.0 0.0 0.00 0.59 0.00 92 1054.2
20260503182507 59 292 0.0 0.0 0.00 0.59 0.00 92 1054.2
20260503182339 59 292 0.0 0.0 0.00 0.59 0.00 92 1054.1
20260503182219 59 292 0.0 0.0 0.00 0.59 0.00 92 1054.2
20260503182114 59 292 0.0 0.0 0.00 0.59 0.00 92 1054.1
20260503182009 59 292 0.0 0.0 0.00 0.59 0.00 92 1054.1
20260503181854 59 315 0.0 0.0 0.00 0.59 0.00 92 1054.1
20260503181742 59 292 0.0 0.0 0.00 0.59 0.00 92 1054.1
20260503181629 59 270 0.0 0.0 0.00 0.59 0.00 92 1054.1
20260503181516 59 270 0.0 0.0 0.00 0.59 0.00 92 1054.0
20260503181412 59 270 0.0 0.0 0.00 0.59 0.00 92 1054.0
20260503181305 59 270 0.0 0.0 0.00 0.59 0.00 92 1054.0
20260503181143 59 270 0.0 0.0 0.00 0.59 0.00 92 1054.0
20260503181022 59 270 0.0 0.0 0.00 0.59 0.00 92 1054.1
20260503180909 59 270 0.0 0.0 0.00 0.59 0.00 92 1054.1
20260503180755 59 270 0.0 0.0 0.00 0.59 0.00 92 1054.0
20260503180636 59 247 0.0 0.0 0.00 0.59 0.00 92 1054.1
20260503180529 59 270 0.0 0.0 0.00 0.59 0.00 92 1054.1
20260503180408 59 247 0.0 0.0 0.00 0.59 0.00 92 1054.1
20260503180239 59 202 0.0 0.0 0.00 0.59 0.00 92 1054.1
20260503180128 59 202 0.0 0.0 0.00 0.59 0.00 92 1054.1
20260503180021 59 202 0.0 0.0 0.00 0.59 0.00 92 1054.1
20260503175854 59 202 0.0 0.0 0.00 0.59 0.00 92 1054.0
20260503175747 59 202 0.0 0.0 0.00 0.59 0.00 92 1054.1
20260503175633 59 202 0.0 0.0 0.00 0.59 0.00 92 1054.1
20260503175514 59 202 0.0 0.0 0.00 0.59 0.00 92 1054.1
20260503175401 59 202 0.0 0.0 0.00 0.59 0.00 92 1054.0
20260503175254 59 202 0.0 0.0 0.00 0.59 0.00 92 1054.0
20260503175140 59 202 0.0 0.0 0.00 0.59 0.00 92 1053.9
20260503175020 58 202 0.0 0.0 0.00 0.59 0.00 92 1053.9
20260503174859 58 202 0.0 0.0 0.00 0.59 0.00 92 1053.9
20260503174739 59 202 0.0 0.0 0.02 0.59 0.00 92 1053.9
20260503174624 58 202 0.0 0.0 0.02 0.59 0.00 92 1053.8
20260503174511 58 202 0.0 0.0 0.02 0.59 0.00 92 1053.9
20260503174357 58 202 0.0 0.0 0.02 0.59 0.00 92 1054.0
20260503174228 58 202 0.0 0.0 0.02 0.59 0.00 92 1053.9
20260503174108 58 202 0.0 0.0 0.02 0.59 0.00 92 1053.9
20260503174002 58 225 0.0 0.0 0.02 0.59 0.00 92 1053.9
20260503173841 58 225 0.0 0.0 0.02 0.59 0.00 92 1053.9
20260503173728 58 225 0.0 0.0 0.02 0.59 0.00 92 1053.9
20260503173606 58 225 0.0 0.0 0.02 0.59 0.00 92 1053.9
20260503173447 58 225 0.0 0.0 0.04 0.59 0.00 92 1054.0
20260503173340 58 225 0.0 0.0 0.04 0.59 0.00 92 1054.0
20260503173219 58 225 0.0 0.0 0.04 0.59 0.00 92 1054.0
20260503173058 58 225 0.0 0.0 0.04 0.59 0.00 92 1054.0
20260503172936 58 225 0.0 0.0 0.04 0.59 0.00 92 1054.0
20260503172823 58 225 0.0 0.0 0.04 0.59 0.00 92 1053.9
20260503172654 58 225 0.0 0.0 0.04 0.59 0.00 92 1054.0
20260503172541 58 225 0.0 0.0 0.04 0.59 0.00 92 1054.0
20260503172420 58 225 0.0 0.0 0.04 0.59 0.00 92 1054.0
20260503172306 58 225 0.0 0.0 0.04 0.59 0.00 92 1054.0
20260503172153 58 225 0.0 0.0 0.04 0.59 0.00 92 1054.0
20260503172024 58 225 0.0 0.0 0.04 0.59 0.00 92 1054.0
20260503171910 58 225 0.0 0.0 0.04 0.59 0.00 92 1053.9
20260503171741 58 225 0.0 0.0 0.04 0.59 0.00 92 1053.9
20260503171613 58 225 0.0 0.0 0.04 0.59 0.00 92 1053.8
20260503171510 58 225 0.0 0.0 0.04 0.59 0.00 92 1053.9
20260503171405 58 225 0.0 0.0 0.04 0.59 0.00 92 1053.9
20260503171258 58 225 0.0 0.0 0.04 0.59 0.00 92 1053.9
20260503171144 58 315 0.0 0.0 0.04 0.59 0.00 92 1053.9
20260503171030 58 315 0.0 0.0 0.04 0.59 0.00 92 1053.9
20260503170912 58 0 0.0 0.0 0.04 0.59 0.00 92 1053.9
20260503170757 58 0 0.0 0.0 0.06 0.59 0.00 92 1053.8
20260503170646 58 0 0.0 0.0 0.06 0.59 0.00 92 1053.9
20260503170538 58 0 0.0 0.0 0.06 0.59 0.00 92 1053.9
20260503170426 58 0 0.0 0.0 0.06 0.59 0.00 92 1053.9
20260503170313 58 0 0.0 0.0 0.06 0.59 0.00 92 1053.9
20260503170202 58 0 0.0 0.0 0.06 0.59 0.00 92 1053.9
20260503160113 58 67 0.0 0.0 0.02 0.53 0.00 91 1053.7
20260503150919 58 45 0.0 0.0 0.31 0.51 0.00 92 1054.0
20260503150805 58 22 0.0 0.0 0.31 0.51 0.00 92 1054.0
20260503150654 58 45 0.0 0.0 0.31 0.51 0.00 92 1053.9
20260503150549 58 45 0.0 0.0 0.31 0.51 0.00 92 1054.0
20260503150444 58 22 0.0 0.0 0.31 0.51 0.00 92 1053.9
20260503150338 58 22 0.0 0.0 0.33 0.51 0.00 92 1054.0
20260503150233 58 0 8.7 0.0 0.33 0.51 0.00 92 1053.9
20260503150129 58 22 6.1 0.0 0.33 0.51 0.00 92 1053.9
20260503140235 59 22 0.0 0.0 0.00 0.18 0.00 88 1053.4
20260503140131 59 22 5.2 0.0 0.00 0.18 0.00 88 1053.4
20260503131409 64 0 3.5 0.0 0.00 0.18 0.00 78 1053.7
20260503131256 64 0 2.6 0.0 0.00 0.18 0.00 78 1053.7
20260503131150 64 22 3.5 0.0 0.00 0.18 0.00 77 1053.7
20260503131036 65 22 4.3 0.0 0.00 0.18 0.00 77 1053.8
20260503130924 65 0 4.3 0.0 0.00 0.18 0.00 76 1053.7
20260503130819 65 22 6.1 0.0 0.00 0.18 0.00 76 1053.9
20260503130657 66 0 7.0 0.0 0.00 0.18 0.00 75 1053.9
20260503130537 66 22 2.6 0.0 0.00 0.18 0.00 75 1054.0
20260503130434 66 45 5.2 0.0 0.00 0.18 0.00 74 1054.0
20260503130327 66 337 7.0 0.0 0.00 0.18 0.00 75 1054.0
20260503130222 67 0 0.0 0.0 0.00 0.18 0.00 74 1054.2
20260503130108 67 22 5.2 0.0 0.00 0.18 0.00 73 1054.1
20260503120132 70 45 7.8 0.0 0.00 0.18 0.00 72 1054.8
20260503110826 76 247 0.0 0.0 0.00 0.18 0.00 58 1055.1
20260503110704 76 247 0.0 0.0 0.00 0.18 0.00 58 1055.1
20260503110543 76 247 0.0 0.0 0.00 0.18 0.00 58 1055.2
20260503110421 76 247 0.0 0.0 0.00 0.18 0.00 58 1055.1
20260503110302 76 247 0.0 0.0 0.00 0.18 0.00 58 1055.1
20260503110148 76 247 3.5 0.0 0.00 0.18 0.00 58 1055.1
20260503100206 78 157 0.0 0.0 0.00 0.18 0.00 53 1055.5
20260503090500 76 135 2.6 0.0 0.00 0.18 0.00 61 1055.7
20260503090354 76 135 2.6 0.0 0.00 0.18 0.00 62 1055.8
20260503090233 76 90 1.7 0.0 0.00 0.18 0.00 64 1055.8
20260503090114 75 157 0.0 0.0 0.00 0.18 0.00 65 1055.8
20260503081605 61 45 2.6 0.0 0.00 0.18 0.00 84 1056.3
20260503081445 61 45 0.0 0.0 0.00 0.18 0.00 84 1056.4
20260503081339 61 67 3.5 0.0 0.00 0.18 0.00 84 1056.3
20260503081233 61 90 0.0 0.0 0.00 0.18 0.00 84 1056.4
20260503081110 61 112 2.6 0.0 0.00 0.18 0.00 84 1056.3
20260503080949 62 22 3.5 0.0 0.00 0.18 0.00 84 1056.4
20260503080828 62 45 2.6 0.0 0.00 0.18 0.00 85 1056.3
20260503080714 62 45 0.9 0.0 0.00 0.18 0.00 85 1056.3
20260503080601 62 67 0.0 0.0 0.00 0.18 0.00 85 1056.3
20260503080454 62 45 2.6 0.0 0.00 0.18 0.00 85 1056.3
20260503080326 62 112 0.0 0.0 0.00 0.18 0.00 85 1056.3
20260503080220 62 112 4.3 0.0 0.00 0.18 0.00 85 1056.2
20260503080115 62 90 0.0 0.0 0.00 0.18 0.00 85 1056.2
20260503072926 61 45 0.0 0.0 0.00 0.18 0.00 86 1056.4
20260503072819 61 45 0.0 0.0 0.00 0.18 0.00 86 1056.3
20260503072658 61 45 0.0 0.0 0.00 0.18 0.00 86 1056.3
20260503072546 61 45 0.0 0.0 0.00 0.18 0.00 86 1056.3
20260503072432 61 45 0.0 0.0 0.00 0.18 0.00 87 1056.2
20260503072318 61 45 0.0 0.0 0.00 0.18 0.00 87 1056.3
20260503072156 61 45 0.0 0.0 0.00 0.18 0.00 87 1056.3
20260503072037 61 45 0.0 0.0 0.00 0.18 0.00 88 1056.4
20260503071925 62 45 0.0 0.0 0.00 0.18 0.00 88 1056.4
20260503071810 62 45 0.0 0.0 0.00 0.18 0.00 88 1056.4
20260503071650 62 45 0.0 0.0 0.00 0.18 0.00 88 1056.3
20260503071544 62 45 0.0 0.0 0.00 0.18 0.00 88 1056.4
20260503071431 62 45 0.0 0.0 0.00 0.18 0.00 88 1056.5
20260503071318 62 45 0.0 0.0 0.00 0.18 0.00 88 1056.5
20260503071204 62 45 0.0 0.0 0.00 0.18 0.00 88 1056.5
20260503071046 62 45 0.0 0.0 0.00 0.18 0.00 89 1056.6
20260503070941 62 45 0.0 0.0 0.00 0.18 0.00 89 1056.5
20260503070835 62 45 0.0 0.0 0.00 0.18 0.00 89 1056.5
20260503070729 62 45 0.0 0.0 0.00 0.18 0.00 89 1056.5
20260503070615 62 45 0.0 0.0 0.00 0.18 0.00 89 1056.4
20260503070447 62 45 0.0 0.0 0.00 0.18 0.00 89 1056.4
20260503070341 62 45 0.0 0.0 0.00 0.18 0.00 90 1056.5
20260503070228 62 45 0.0 0.0 0.00 0.18 0.00 90 1056.4
20260503070123 62 45 0.0 0.0 0.00 0.18 0.00 90 1056.4
20260503060243 60 112 0.0 0.0 0.00 0.18 0.00 92 1056.5
20260503060130 60 112 0.0 0.0 0.00 0.18 0.00 92 1056.4
20260503055033 57 157 0.0 0.0 0.00 0.18 0.00 93 1056.4
20260503054927 57 157 0.0 0.0 0.00 0.18 0.00 93 1056.4
20260503054821 57 157 0.0 0.0 0.00 0.18 0.00 94 1056.4
20260503054709 57 157 0.0 0.0 0.00 0.18 0.00 94 1056.5
20260503054603 56 157 0.0 0.0 0.00 0.18 0.00 94 1056.4
20260503054450 56 157 0.0 0.0 0.00 0.18 0.00 94 1056.5
20260503054339 56 157 0.0 0.0 0.00 0.18 0.00 94 1056.4
20260503054232 56 157 0.0 0.0 0.00 0.18 0.00 94 1056.4
20260503054111 56 157 0.0 0.0 0.00 0.18 0.00 94 1056.4
20260503054008 56 157 0.0 0.0 0.00 0.18 0.00 94 1056.4
20260503053859 56 157 0.0 0.0 0.00 0.18 0.00 94 1056.3
20260503053746 56 157 0.0 0.0 0.00 0.18 0.00 94 1056.4
20260503053633 55 157 0.0 0.0 0.00 0.18 0.00 94 1056.4
20260503053511 55 157 0.0 0.0 0.00 0.18 0.00 94 1056.3
20260503053336 55 157 0.0 0.0 0.00 0.18 0.00 94 1056.4
20260503053231 55 157 0.0 0.0 0.00 0.18 0.00 94 1056.4
20260503053124 55 157 0.0 0.0 0.00 0.18 0.00 94 1056.4
20260503053003 55 157 0.0 0.0 0.00 0.18 0.00 94 1056.4
20260503052841 55 157 0.0 0.0 0.00 0.18 0.00 94 1056.4
20260503052728 55 135 0.0 0.0 0.00 0.18 0.00 94 1056.4
20260503052624 55 135 0.0 0.0 0.00 0.18 0.00 94 1056.4
20260503052510 55 135 0.0 0.0 0.00 0.18 0.00 94 1056.4
20260503052357 55 135 0.0 0.0 0.00 0.18 0.00 94 1056.4
20260503052244 54 135 0.0 0.0 0.00 0.18 0.00 94 1056.4
20260503052131 54 135 0.0 0.0 0.00 0.18 0.00 94 1056.4
20260503052025 54 135 0.0 0.0 0.00 0.18 0.00 94 1056.5
20260503051904 54 157 1.7 0.0 0.00 0.18 0.00 93 1056.4
20260503051751 54 135 0.0 0.0 0.00 0.18 0.00 94 1056.4
20260503051638 54 135 0.0 0.0 0.00 0.18 0.00 94 1056.4
20260503051516 54 135 0.0 0.0 0.00 0.18 0.00 94 1056.3
20260503051404 54 135 0.0 0.0 0.00 0.18 0.00 93 1056.3
20260503051251 54 135 0.0 0.0 0.00 0.18 0.00 93 1056.3
20260503051146 54 135 0.0 0.0 0.00 0.18 0.00 93 1056.3
20260503051040 54 135 0.0 0.0 0.00 0.18 0.00 93 1056.3
20260503050921 54 135 0.0 0.0 0.00 0.18 0.00 93 1056.2
20260503050815 54 135 0.0 0.0 0.00 0.18 0.00 93 1056.3
20260503050709 54 135 0.0 0.0 0.00 0.18 0.00 93 1056.2
20260503050555 54 135 0.0 0.0 0.00 0.18 0.00 93 1056.2
20260503050433 54 135 0.0 0.0 0.00 0.18 0.00 93 1056.3
20260503050313 54 135 0.0 0.0 0.00 0.18 0.00 93 1056.2
20260503050207 54 135 0.0 0.0 0.00 0.18 0.00 93 1056.2
20260503050053 54 112 0.0 0.0 0.00 0.18 0.00 93 1056.1
20260503045939 53 112 0.0 0.0 0.00 0.18 0.00 93 1056.2
20260503045818 53 135 0.0 0.0 0.00 0.18 0.00 93 1056.3
20260503045704 53 135 0.0 0.0 0.00 0.18 0.00 93 1056.2
20260503045545 53 135 0.0 0.0 0.00 0.18 0.00 93 1056.2
20260503045439 53 135 0.0 0.0 0.00 0.18 0.00 93 1056.2
20260503045326 53 135 0.0 0.0 0.00 0.18 0.00 93 1056.2
20260503045213 53 135 0.0 0.0 0.00 0.18 0.00 93 1056.1
20260503045108 53 135 0.0 0.0 0.02 0.18 0.00 93 1056.1
20260503044939 53 135 0.0 0.0 0.02 0.18 0.00 93 1056.0
20260503044833 53 135 0.0 0.0 0.02 0.18 0.00 93 1056.1
20260503044720 53 135 0.0 0.0 0.02 0.18 0.00 93 1056.0
20260503044606 53 135 0.0 0.0 0.02 0.18 0.00 93 1056.0
20260503044448 53 112 0.0 0.0 0.02 0.18 0.00 93 1056.0
20260503044340 53 112 0.0 0.0 0.04 0.18 0.00 93 1056.0
20260503044228 53 112 0.0 0.0 0.04 0.18 0.00 93 1055.9
20260503044123 53 112 0.0 0.0 0.04 0.18 0.00 93 1056.0
20260503044018 53 90 0.0 0.0 0.04 0.18 0.00 93 1055.8
20260503043912 53 90 0.0 0.0 0.06 0.18 0.00 93 1055.9
20260503043759 53 90 0.0 0.0 0.06 0.18 0.00 93 1055.9
20260503043646 53 90 0.0 0.0 0.06 0.18 0.00 93 1055.9
20260503043533 53 112 0.0 0.0 0.08 0.18 0.00 93 1055.9
20260503043421 53 112 4.3 0.0 0.08 0.18 0.00 93 1055.9
20260503043301 53 112 0.0 0.0 0.08 0.18 0.00 93 1055.9
20260503043154 53 112 5.2 0.0 0.16 0.18 0.00 93 1055.9
20260503043043 53 112 0.0 0.0 0.16 0.18 0.00 93 1056.0
20260503042938 53 112 0.0 0.0 0.16 0.18 0.00 93 1056.0
20260503042832 53 112 0.0 0.0 0.16 0.18 0.00 93 1056.0
20260503042725 53 112 0.0 0.0 0.16 0.18 0.00 93 1055.9
20260503042613 53 112 0.0 0.0 0.16 0.18 0.00 93 1056.0
20260503042242 53 112 0.0 0.0 0.18 0.18 0.00 93 1056.0
20260503042136 53 112 2.6 0.0 0.18 0.18 0.00 93 1056.1
20260503042023 53 135 3.5 0.0 0.18 0.18 0.00 93 1056.1
20260503041910 53 135 1.7 0.0 0.18 0.18 0.00 93 1056.2
20260503041805 53 112 3.5 0.0 0.18 0.18 0.00 93 1056.2
20260503041652 53 90 0.0 0.0 0.18 0.18 0.00 93 1056.2
20260503041539 53 90 1.7 0.0 0.18 0.18 0.00 93 1056.3
20260503041435 53 112 3.5 0.0 0.18 0.18 0.00 93 1056.3
20260503041328 53 112 4.3 0.0 0.18 0.18 0.00 93 1056.3
20260503041216 53 90 0.0 0.0 0.18 0.18 0.00 93 1056.4
20260503041111 53 67 5.2 0.0 0.18 0.18 0.00 93 1056.4
20260503040958 53 90 5.2 0.0 0.18 0.18 0.00 93 1056.4
20260503040852 53 112 5.2 0.0 0.18 0.18 0.00 93 1056.4
20260503040733 53 112 3.5 0.0 0.18 0.18 0.00 93 1056.6
20260503040618 53 112 0.0 0.0 0.18 0.18 0.00 93 1056.7
20260503040457 53 112 0.0 0.0 0.18 0.18 0.00 93 1056.6
20260503040346 53 112 2.6 0.0 0.18 0.18 0.00 93 1056.7
20260503040232 53 135 3.5 0.0 0.18 0.18 0.00 93 1056.8
20260503040127 53 135 3.5 0.0 0.18 0.18 0.00 93 1056.8
20260503040021 53 112 0.0 0.0 0.18 0.18 0.00 93 1056.8
20260503035908 53 112 0.0 0.0 0.18 0.18 0.00 93 1056.9
20260503035754 53 112 0.0 0.0 0.18 0.18 0.00 93 1057.0
20260503035641 53 112 0.0 0.0 0.18 0.18 0.00 93 1056.9
20260503035530 53 112 1.7 0.0 0.16 0.16 0.00 93 1056.8
20260503035423 54 90 0.0 0.0 0.16 0.16 0.00 93 1056.7
20260503035310 54 90 4.3 0.0 0.16 0.16 0.00 92 1056.9
20260503035151 54 112 5.2 0.0 0.16 0.16 0.00 92 1056.7
20260503035043 54 112 1.7 0.0 0.16 0.16 0.00 92 1056.7
20260503034923 54 112 0.0 0.0 0.16 0.16 0.00 92 1056.8
20260503034818 54 90 4.3 0.0 0.16 0.16 0.00 92 1056.8
20260503034713 54 67 5.2 0.0 0.16 0.16 0.00 92 1056.8
20260503034608 54 90 0.0 0.0 0.16 0.16 0.00 92 1056.9
20260503034503 54 67 5.2 0.0 0.14 0.14 0.00 92 1056.8
20260503034358 54 112 3.5 0.0 0.14 0.14 0.00 92 1056.8
20260503034245 54 112 4.3 0.0 0.14 0.14 0.00 92 1057.0
20260503034132 54 90 0.0 0.0 0.14 0.14 0.00 92 1056.9
20260503034027 54 67 0.0 0.0 0.12 0.12 0.00 92 1057.0
20260503033923 54 45 0.9 0.0 0.12 0.12 0.00 92 1057.0
20260503033810 54 45 0.0 0.0 0.10 0.10 0.00 92 1057.1
20260503033704 54 45 0.0 0.0 0.10 0.10 0.00 92 1057.1
20260503033550 54 0 0.0 0.0 0.08 0.08 0.00 92 1057.2
20260503033436 54 315 0.0 0.0 0.06 0.06 0.00 92 1057.5
20260503033326 54 315 0.0 0.0 0.04 0.04 0.00 92 1057.6
20260503033219 53 315 0.0 0.0 0.02 0.02 0.00 92 1057.5
20260503033106 54 315 0.0 0.0 0.02 0.02 0.00 92 1057.5
20260503032952 53 315 0.0 0.0 0.02 0.02 0.00 92 1057.6
20260503032832 53 337 0.0 0.0 0.02 0.02 0.00 92 1057.6
20260503032726 53 337 0.0 0.0 0.00 0.00 0.00 92 1057.5
20260503032613 53 337 0.0 0.0 0.00 0.00 0.00 92 1057.5
20260503032500 53 337 0.0 0.0 0.00 0.00 0.00 92 1057.5
20260503032356 53 0 0.0 0.0 0.00 0.00 0.00 92 1057.5
20260503032246 53 0 0.0 0.0 0.00 0.00 0.00 92 1057.4
20260503032129 53 0 0.0 0.0 0.00 0.00 0.00 92 1057.4
20260503032026 53 0 0.0 0.0 0.00 0.00 0.00 92 1057.3
20260503031919 53 0 0.0 0.0 0.00 0.00 0.00 92 1057.3
20260503031816 53 0 0.0 0.0 0.00 0.00 0.00 92 1057.2
20260503031711 53 0 0.0 0.0 0.00 0.00 0.00 92 1057.2
20260503031556 53 0 0.0 0.0 0.00 0.00 0.00 92 1057.1
20260503031434 53 0 0.0 0.0 0.00 0.00 0.00 92 1057.2
20260503031321 53 0 0.0 0.0 0.00 0.00 0.00 92 1057.1
20260503031208 53 0 0.0 0.0 0.00 0.00 0.00 92 1057.1
20260503031055 53 0 0.0 0.0 0.00 0.00 0.00 92 1057.1
20260503030942 53 0 0.0 0.0 0.00 0.00 0.00 92 1057.2
20260503030837 53 0 0.0 0.0 0.00 0.00 0.00 92 1057.1
20260503030724 53 0 0.0 0.0 0.00 0.00 0.00 92 1057.2
20260503030610 53 0 0.0 0.0 0.00 0.00 0.00 92 1057.2
20260503030506 53 0 0.0 0.0 0.00 0.00 0.00 92 1057.1
20260503030402 53 0 0.0 0.0 0.00 0.00 0.00 92 1057.1
20260503030254 52 0 0.0 0.0 0.00 0.00 0.00 92 1057.2
20260503030141 52 0 0.0 0.0 0.00 0.00 0.00 92 1057.3
20260503030027 52 0 0.0 0.0 0.00 0.00 0.00 92 1057.3
20260503025907 52 22 0.0 0.0 0.00 0.00 0.00 92 1057.3
20260503025754 52 22 0.0 0.0 0.00 0.00 0.00 92 1057.3
20260503025647 52 22 0.0 0.0 0.00 0.00 0.00 92 1057.2
20260503025542 52 67 0.0 0.0 0.00 0.00 0.00 92 1057.2
20260503025419 52 90 0.0 0.0 0.00 0.00 0.00 92 1057.2
20260503025300 52 90 0.0 0.0 0.00 0.00 0.00 92 1057.2
20260503025153 52 90 0.0 0.0 0.00 0.00 0.00 92 1057.1
20260503025041 52 90 0.0 0.0 0.00 0.00 0.00 92 1057.1
20260503024928 52 90 0.0 0.0 0.00 0.00 0.00 92 1057.1
20260503024800 52 90 0.0 0.0 0.00 0.00 0.00 92 1057.0
20260503024647 52 90 0.0 0.0 0.00 0.00 0.00 92 1057.0
20260503024540 52 90 0.0 0.0 0.00 0.00 0.00 92 1057.0
20260503024419 52 90 0.0 0.0 0.00 0.00 0.00 92 1056.8
20260503024314 52 90 0.0 0.0 0.00 0.00 0.00 92 1056.8
20260503024208 52 90 0.0 0.0 0.00 0.00 0.00 92 1056.8
20260503024104 52 135 0.0 0.0 0.00 0.00 0.00 92 1056.7
20260503023959 52 135 0.0 0.0 0.00 0.00 0.00 92 1056.7
20260503023853 52 135 0.0 0.0 0.00 0.00 0.00 92 1056.8
20260503023733 52 135 0.0 0.0 0.00 0.00 0.00 92 1056.8
20260503023627 52 135 0.0 0.0 0.00 0.00 0.00 92 1056.8
20260503023522 52 135 0.0 0.0 0.00 0.00 0.00 92 1056.8
20260503023408 52 135 0.0 0.0 0.00 0.00 0.00 92 1056.8
20260503023256 52 135 0.0 0.0 0.00 0.00 0.00 92 1056.8
20260503023143 52 135 0.0 0.0 0.00 0.00 0.00 92 1056.8
20260503023032 52 135 0.0 0.0 0.00 0.00 0.00 92 1056.9
20260503022917 52 135 0.0 0.0 0.00 0.00 0.00 92 1056.9
20260503022811 52 135 0.0 0.0 0.00 0.00 0.00 92 1056.9
20260503022650 52 0 0.0 0.0 0.00 0.00 0.00 92 1057.1
20260503022530 52 135 0.0 0.0 0.00 0.00 0.00 92 1057.0
20260503022423 52 135 0.0 0.0 0.00 0.00 0.00 92 1057.2
20260503022311 52 135 0.0 0.0 0.00 0.00 0.00 92 1057.2
20260503022206 52 135 0.0 0.0 0.00 0.00 0.00 92 1057.2
20260503022044 52 135 0.0 0.0 0.00 0.00 0.00 92 1057.2
20260503021933 52 135 0.0 0.0 0.00 0.00 0.00 92 1057.0
20260503021829 52 135 0.0 0.0 0.00 0.00 0.00 92 1057.1
20260503021723 52 135 0.0 0.0 0.00 0.00 0.00 92 1057.3
20260503021618 52 135 0.0 0.0 0.00 0.00 0.00 92 1057.2
20260503021513 52 135 0.0 0.0 0.00 0.00 0.00 92 1057.2
20260503021400 52 135 0.0 0.0 0.00 0.00 0.00 92 1057.2
20260503021245 52 135 0.0 0.0 0.00 0.00 0.00 92 1057.2
20260503021127 52 135 0.0 0.0 0.00 0.00 0.00 92 1057.2
20260503021018 52 135 0.0 0.0 0.00 0.00 0.00 92 1057.2
20260503020856 52 135 0.0 0.0 0.00 0.00 0.00 92 1057.4
20260503020728 52 135 0.0 0.0 0.00 0.00 0.00 92 1057.3